Weather History for KBAF - April, 2013

Change the Weather History Date:

Monday, April 1, 2013

  Actual Average Record
Temperature  
Mean Temperature 48 °F -  
Max Temperature 62 °F 48 °F 71 °F (2006)
Min Temperature 33 °F 30 °F 23 °F (2007)
Degree Days  
Heating Degree Days 18    
Moisture  
Dew Point 36 °F    
Average Humidity 80    
Maximum Humidity 100    
Minimum Humidity 39    
Precipitation  
Precipitation 0.20 in - - ()
Sea Level Pressure  
Sea Level Pressure 29.66 in    
Wind  
Wind Speed 6 mph (NW)    
Max Wind Speed 20 mph    
Max Gust Speed 36 mph    
Visibility 7 miles    
Events Fog , Rain    
Averages and records for this station are not official NWS values.
T = Trace of Precipitation, MM = Missing Value Source: NWS Daily Summary

Daily Weather History Graph

Daily Weather History Graph

Search for Another Location

Airport or City:

Trip Planner

Search our weather history database for the weather conditions in past years. The results will help you decide how hot, cold, wet, or windy it might be!

Date:

Astronomy

Apr. 01, 2013 Rise Set
Actual Time 6:33 AM EDT 7:16 PM EDT
Civil Twilight 6:04 AM EDT 7:45 PM EDT
Nautical Twilight 5:31 AM EDT 8:18 PM EDT
Astronomical Twilight 4:56 AM EDT 8:53 PM EDT
Moon 12:26 AM EDT (4/1) 10:12 AM EDT (4/1)
Length of Visible Light 13h 40m
Length of Day
12h 43m
Waning Gibbous, 67% of the Moon is Illuminated
Apr 1
Waning Gibbous
Apr 3
Last Quarter
Apr 10
New
Apr 18
First Quarter
Apr 25
Full

Hourly Weather History & Observations

Time (EDT) Temp. Windchill Dew Point Humidity Pressure Visibility Wind Dir Wind Speed Gust Speed Precip Events Conditions
12:53 AM 43.0 °F 39.5 °F 41.0 °F 93% 29.67 in 5.0 mi North 5.8 mph - 0.14 in Rain Rain
1:48 AM 42.8 °F 37.5 °F 41.0 °F 93% 29.64 in 5.0 mi North 9.2 mph - 0.03 in Rain Light Rain
1:53 AM 43.0 °F 38.2 °F 41.0 °F 93% 29.65 in 5.0 mi North 8.1 mph - 0.04 in Rain Light Rain
2:13 AM 42.8 °F 38.0 °F 41.0 °F 93% 29.63 in 4.0 mi North 8.1 mph - 0.00 in Rain Light Rain
2:53 AM 42.1 °F 38.4 °F 41.0 °F 96% 29.64 in 7.0 mi North 5.8 mph - 0.01 in Rain Light Rain
3:53 AM 42.1 °F 39.2 °F 39.9 °F 92% 29.63 in 10.0 mi NNW 4.6 mph - 0.00 in   Overcast
4:53 AM 41.0 °F - 39.0 °F 93% 29.65 in 8.0 mi Calm Calm - N/A   Mostly Cloudy
5:51 AM 39.2 °F 37.0 °F 39.2 °F 100% 29.65 in 8.0 mi South 3.5 mph - N/A   Overcast
5:53 AM 39.9 °F 37.8 °F 39.0 °F 97% 29.66 in 8.0 mi South 3.5 mph - N/A   Overcast
6:25 AM 39.2 °F - 37.4 °F 93% 29.66 in 4.0 mi Calm Calm - N/A   Mostly Cloudy
6:36 AM 39.2 °F - 37.4 °F 93% 29.65 in 2.0 mi Calm Calm - N/A   Mostly Cloudy
6:46 AM 39.2 °F - 37.4 °F 93% 29.65 in 5.0 mi Calm Calm - N/A   Mostly Cloudy
6:53 AM 39.9 °F - 39.0 °F 97% 29.67 in 3.0 mi Calm Calm - N/A   Mostly Cloudy
6:57 AM 39.2 °F - 37.4 °F 93% 29.66 in 1.8 mi Calm Calm - N/A   Mostly Cloudy
7:05 AM 37.4 °F - 37.4 °F 100% 29.66 in 0.5 mi Calm Calm - N/A Fog Fog
7:14 AM 37.4 °F - 37.4 °F 100% 29.66 in 0.2 mi Calm Calm - N/A Fog Fog
7:16 AM 37.4 °F 34.9 °F 37.4 °F 100% 29.66 in 0.2 mi NW 3.5 mph - N/A Fog Fog
7:28 AM 39.2 °F - 37.4 °F 93% 29.65 in 0.2 mi Calm Calm - N/A Fog Fog
7:42 AM 39.2 °F 37.0 °F 37.4 °F 93% 29.65 in 0.2 mi ENE 3.5 mph - N/A Fog Fog
7:53 AM 39.9 °F 37.8 °F 39.0 °F 97% 29.66 in 0.2 mi East 3.5 mph - N/A Fog Fog
7:58 AM 42.8 °F - 39.2 °F 87% 29.65 in 0.8 mi Calm Calm - N/A   Scattered Clouds
8:00 AM 42.8 °F - 39.2 °F 87% 29.64 in 2.5 mi Calm Calm - N/A   Scattered Clouds
8:02 AM 42.8 °F - 39.2 °F 87% 29.64 in 10.0 mi Calm Calm - N/A   Mostly Cloudy
8:46 AM 44.6 °F 42.2 °F 41.0 °F 87% 29.64 in 10.0 mi SSE 4.6 mph - N/A   Clear
8:53 AM 44.1 °F 40.8 °F 39.9 °F 85% 29.65 in 10.0 mi SSE 5.8 mph - N/A   Clear
9:53 AM 48.0 °F - 43.0 °F 83% 29.65 in 10.0 mi SSW 5.8 mph - N/A   Clear
10:53 AM 52.0 °F - 42.1 °F 69% 29.62 in 10.0 mi South 6.9 mph - N/A   Clear
11:53 AM 55.9 °F - 41.0 °F 57% 29.60 in 10.0 mi SW 17.3 mph 25.3 mph N/A   Scattered Clouds
1:25 PM 60.8 °F - 37.4 °F 42% 29.56 in 10.0 mi WSW 19.6 mph 28.8 mph N/A   Mostly Cloudy
1:53 PM 61.0 °F - 37.9 °F 42% 29.55 in 10.0 mi SW 19.6 mph 25.3 mph N/A   Mostly Cloudy
2:33 PM 48.2 °F - 41.0 °F 76% 29.58 in 10.0 mi NW 19.6 mph 32.2 mph 0.00 in Rain Light Rain
2:53 PM 50.0 °F - 39.9 °F 68% 29.60 in 10.0 mi WNW 13.8 mph 24.2 mph 0.00 in   Mostly Cloudy
3:41 PM 44.6 °F 36.6 °F 35.6 °F 71% 29.64 in 10.0 mi NW 19.6 mph 35.7 mph 0.01 in Rain Light Rain
3:53 PM 42.1 °F 33.9 °F 33.1 °F 70% 29.66 in 10.0 mi NW 17.3 mph 32.2 mph 0.01 in Rain Light Rain
4:53 PM 41.0 °F 32.5 °F 30.0 °F 65% 29.70 in 10.0 mi NW 17.3 mph 27.6 mph 0.00 in Rain Light Rain
5:53 PM 39.9 °F 32.9 °F 27.0 °F 60% 29.72 in 10.0 mi NW 11.5 mph 19.6 mph N/A   Partly Cloudy
6:53 PM 41.0 °F 33.1 °F 21.9 °F 47% 29.73 in 10.0 mi NW 15.0 mph 24.2 mph N/A   Clear
7:53 PM 39.0 °F 29.6 °F 16.0 °F 39% 29.77 in 10.0 mi NW 18.4 mph 25.3 mph N/A   Clear
9:53 PM 36.0 °F 28.5 °F 15.1 °F 43% 29.83 in 10.0 mi NW 10.4 mph 25.3 mph N/A   Clear
10:53 PM 34.0 °F 25.0 °F 16.0 °F 48% 29.84 in 10.0 mi NW 12.7 mph 20.7 mph N/A   Clear
11:53 PM 33.1 °F 26.1 °F 15.1 °F 48% 29.85 in 10.0 mi WNW 8.1 mph - N/A   Clear